This is the latest recevied weather packets stored in our database for station/object W4FXD. If no packets are shown the sender has not sent any weather packets the latest 1 day(s).
| Time | Temp. | Humidity | Pressure | Rain* | Wind** | Luminosity | Snow |
|---|---|---|---|---|---|---|---|
| 1777981776 | 12.22° C | 85% | 1014.7 hPa | 0 mm | 0 m/s | 52 W/m² | - |
| 1777981471 | 12.22° C | 85% | 1014.7 hPa | 0 mm | 0 m/s | 45 W/m² | - |
| 1777981168 | 12.22° C | 85% | 1014.6 hPa | 0 mm | 0 m/s | 40 W/m² | - |
| 1777980865 | 12.22° C | 84% | 1014.8 hPa | 0 mm | 0 m/s | 35 W/m² | - |
| 1777980560 | 12.22° C | 84% | 1014.5 hPa | 0 mm | 0 m/s | 29 W/m² | - |
| 1777980258 | 12.22° C | 84% | 1014.6 hPa | 0 mm | 0 m/s | 24 W/m² | - |
| 1777979954 | 12.22° C | 84% | 1014.3 hPa | 0 mm | 0 m/s | 21 W/m² | - |
| 1777979649 | 12.22° C | 83% | 1014.4 hPa | 0 mm | 0 m/s | 18 W/m² | - |
| 1777979346 | 12.22° C | 83% | 1014.3 hPa | 0 mm | 0 m/s | 17 W/m² | - |
| 1777979043 | 11.67° C | 84% | 1014.2 hPa | 0 mm | 0 m/s | 15 W/m² | - |
| 1777978739 | 11.67° C | 83% | 1014.4 hPa | 0 mm | 0 m/s | 11 W/m² | - |
| 1777978435 | 11.67° C | 84% | 1014.1 hPa | 0 mm | 0 m/s | 8 W/m² | - |
| 1777978132 | 11.67° C | 83% | 1014 hPa | 0 mm | 0 m/s | 5 W/m² | - |
| 1777977830 | 11.67° C | 83% | 1014.1 hPa | 0 mm | 0 m/s | 3 W/m² | - |
| 1777977525 | 11.67° C | 83% | 1014 hPa | 0 mm | 0 m/s | 0 W/m² | - |
| 1777977223 | 11.67° C | 83% | 1014 hPa | 0 mm | 0 m/s | 0 W/m² | - |
| 1777976920 | 11.67° C | 82% | 1014.1 hPa | 0 mm | 0 m/s | 0 W/m² | - |
| 1777976618 | 11.67° C | 83% | 1014.1 hPa | 0 mm | 0 m/s | 0 W/m² | - |
| 1777976313 | 11.67° C | 83% | 1014.2 hPa | 0 mm | 0 m/s | 0 W/m² | - |
| 1777976008 | 11.67° C | 82% | 1014.2 hPa | 0 mm | 0 m/s | 0 W/m² | - |
| 1777975704 | 12.22° C | 83% | 1014.4 hPa | 0 mm | 0 m/s | 0 W/m² | - |
| 1777975401 | 12.22° C | 82% | 1014.1 hPa | 0 mm | 0 m/s | 0 W/m² | - |
| 1777975097 | 12.22° C | 81% | 1014.1 hPa | 0 mm | 0 m/s | 0 W/m² | - |
| 1777974795 | 12.22° C | 81% | 1014.2 hPa | 0 mm | 0 m/s | 0 W/m² | - |
| 1777974490 | 12.22° C | 81% | 1014.1 hPa | 0 mm | 0 m/s | 0 W/m² | - |
* Rain latest hour (hover to see other rain measurements)
** Current wind speed in m/s (hover to see current wind gust speed)